Flag for Senegal Weather past 2 weeks in Thiès, Senegal

Now
84 °F

Scattered clouds.


Feels Like: 91 °F
Forecast: 76 / 89 °F
Wind: 9 mph from Northwest

Location: Dakar / Yoff

Current Time: Jul 26, 2014 at 11:17:03 AM

Latest Report: Jul 26, 2014 at 11:00 AM


Visibility: N/A

Pressure: 29.95 "Hg

Humidity: 70%

Dew point: 73 °F

Location of ThièsLocation

Historic Weather in Thiès — Graph

°F

Thiès temperature yesterday

Maximum temperature yesterday: 88 °F (at 3:30 PM)
Minimum temperature yesterday: 79 °F (at 12:00 AM)
Average temperature yesterday: 82 °F

Past Weeks' High & Low Weather Summary

 TemperatureHumidityPressure
High88 °F (Jul 15, 1:30 PM)89% (Jul 13, 1:00 AM)30.07 "Hg (Jul 13, 1:00 AM)
Low77 °F (Jul 15, 6:30 AM)52% (Jul 20, 3:00 PM)29.80 "Hg (Jul 14, 5:00 PM)
Average81 °F76%29.94 "Hg
* Reported Jul 11 10:00 AM — Jul 26 10:00 AM, Thiès, Weather by CustomWeather, © 2014

Note: Actual official high and low records may vary slightly from our data, if they occured in-between our weather recording intervals... More about our weather records

Advertising

Thiès weather history for previous 24 hours

 ConditionsComfort  
Time TempWeatherWind HumidityBarometerVisibility
10:00 AM
Jul 26
82 °FScattered clouds.8 mph74%29.95 "HgN/A
9:30 AM82 °FScattered clouds.9 mph74%29.95 "HgN/A
9:00 AM81 °FScattered clouds.7 mph79%29.92 "HgN/A
8:30 AM81 °FPartly sunny.7 mph79%29.92 "HgN/A
8:00 AM81 °FPartly sunny.3 mph79%29.92 "HgN/A
7:30 AM79 °FScattered clouds.5 mph84%29.92 "HgN/A
7:00 AM79 °FScattered clouds.5 mph79%29.92 "HgN/A
6:30 AM79 °FPassing clouds.5 mph84%29.89 "HgN/A
6:00 AM79 °FPassing clouds.3 mph84%29.89 "HgN/A
5:30 AM79 °FPassing clouds.5 mph84%29.89 "HgN/A
5:00 AM79 °FPassing clouds.6 mph84%29.89 "HgN/A
4:30 AM79 °FPassing clouds.5 mph84%29.89 "HgN/A
4:00 AM79 °FPassing clouds.5 mph84%29.89 "HgN/A
3:30 AM79 °FPassing clouds.6 mph84%29.89 "HgN/A
3:00 AM79 °FPassing clouds.6 mph84%29.89 "HgN/A
2:30 AM79 °FPassing clouds.6 mph84%29.89 "HgN/A
2:00 AM79 °FPassing clouds.6 mph84%29.89 "HgN/A
1:30 AM79 °FPassing clouds.6 mph84%29.92 "HgN/A
1:00 AM79 °FPassing clouds.7 mph84%29.92 "HgN/A
12:30 AM79 °FPassing clouds.5 mph84%29.92 "HgN/A
12:00 AM81 °FPassing clouds.7 mph74%29.95 "HgN/A
11:30 PM
Jul 25
81 °FPassing clouds.7 mph79%29.95 "HgN/A
11:00 PM81 °FPassing clouds.7 mph79%29.95 "HgN/A
10:30 PM81 °FPassing clouds.6 mph74%29.92 "HgN/A
10:00 PM81 °FPassing clouds.5 mph79%29.92 "HgN/A
9:30 PM81 °FPassing clouds.5 mph79%29.92 "HgN/A
9:00 PM81 °FPassing clouds.5 mph79%29.92 "HgN/A
8:30 PM81 °FPassing clouds.6 mph79%29.89 "HgN/A
8:00 PM81 °FPassing clouds.6 mph74%29.89 "HgN/A
7:30 PM81 °FPassing clouds.6 mph79%29.86 "HgN/A
7:00 PM82 °FPassing clouds.6 mph70%29.86 "HgN/A
6:30 PM84 °FPassing clouds.6 mph66%29.86 "HgN/A
6:00 PM84 °FPassing clouds.6 mph66%29.86 "HgN/A
5:30 PM86 °FPassing clouds.7 mph66%29.86 "HgN/A
5:00 PM86 °FSunny.7 mph62%29.86 "Hg10 mi
4:30 PM86 °FPassing clouds.7 mph62%29.86 "HgN/A
4:00 PM86 °FPassing clouds.8 mph62%29.86 "HgN/A
3:30 PM88 °FPassing clouds.6 mph59%29.89 "HgN/A
3:00 PM86 °FPassing clouds.6 mph66%29.89 "HgN/A
2:30 PM86 °FScattered clouds.6 mph62%29.89 "HgN/A
2:00 PM86 °FScattered clouds.8 mph62%29.89 "HgN/A
1:30 PM86 °FScattered clouds.7 mph62%29.89 "HgN/A
1:00 PM86 °FScattered clouds.6 mph62%29.92 "HgN/A
12:30 PM84 °FPartly sunny.6 mph66%29.92 "HgN/A
12:00 PM84 °FPartly sunny.7 mph66%29.92 "HgN/A
11:30 AM84 °FPartly sunny.6 mph70%29.95 "HgN/A
11:00 AM84 °FPartly sunny.6 mph66%29.92 "HgN/A
Weather by CustomWeather, © 2014

See weather overviewHow to use our weather pages